Marshfield, WI

9:41 AM CDT on August 27, 2016 (GMT -0500)
Marshfield Municipal

Weather History for KMFI - October, 2011

Change the Weather History Date:

Friday, October 21, 2011

  Actual Average Record
Temperature  
Mean Temperature 41 °F -  
Max Temperature 54 °F 56 °F 87 °F (1947)
Min Temperature 28 °F 34 °F 15 °F (1960)
Degree Days  
Heating Degree Days 24    
Moisture  
Dew Point 29 °F    
Average Humidity 65    
Maximum Humidity 89    
Minimum Humidity 35    
Precipitation  
Precipitation 0.00 in - - ()
Sea Level Pressure  
Sea Level Pressure 30.02 in    
Wind  
Wind Speed 4 mph (West)    
Max Wind Speed 12 mph    
Max Gust Speed -    
Visibility 10 miles    
Events      
Averages and records for this station are not official NWS values.
T = Trace of Precipitation, MM = Missing Value Source: NWS Daily Summary

Daily Weather History Graph

Daily Weather History Graph

Search for Another Location

Airport or City:

Trip Planner

Search our weather history database for the weather conditions in past years. The results will help you decide how hot, cold, wet, or windy it might be!

Date:

Astronomy

Oct. 21, 2011 Rise Set
Actual Time 7:23 AM CDT 6:06 PM CDT
Civil Twilight 6:53 AM CDT 6:36 PM CDT
Nautical Twilight 6:19 AM CDT 7:10 PM CDT
Astronomical Twilight 5:46 AM CDT 7:43 PM CDT
Moon 12:59 AM CDT (10/21) 3:03 PM CDT (10/21)
Length of Visible Light 11h 42m
Length of Day
10h 43m
Waning Crescent, 33% of the Moon is Illuminated
Oct 21
Waning Crescent
Oct 26
New
Nov 2
First Quarter
Nov 10
Full
Nov 18
Last Quarter

Hourly Weather History & Observations

Time (CDT) Temp. Windchill Dew Point Humidity Pressure Visibility Wind Dir Wind Speed Gust Speed Precip Events Conditions
12:54 AM 32.0 °F 27.5 °F 28.0 °F 85% 29.95 in 10.0 mi WNW 4.6 mph - N/A   Clear
1:54 AM 32.0 °F 27.5 °F 28.0 °F 85% 29.97 in 10.0 mi WNW 4.6 mph - N/A   Clear
2:54 AM 30.9 °F 26.2 °F 27.0 °F 85% 29.99 in 10.0 mi WNW 4.6 mph - N/A   Clear
3:54 AM 30.0 °F 24.1 °F 26.1 °F 85% 29.99 in 10.0 mi NW 5.8 mph - N/A   Clear
4:54 AM 28.9 °F 23.9 °F 26.1 °F 89% 30.01 in 10.0 mi WNW 4.6 mph - N/A   Clear
5:54 AM 30.0 °F - 26.1 °F 85% 30.01 in 10.0 mi Calm Calm - N/A   Clear
7:54 AM 28.9 °F - 25.0 °F 85% 30.04 in 10.0 mi Calm Calm - N/A   Clear
8:54 AM 33.1 °F 28.7 °F 28.0 °F 82% 30.06 in 10.0 mi WNW 4.6 mph - N/A   Clear
9:54 AM 39.9 °F - 32.0 °F 73% 30.06 in 10.0 mi Calm Calm - N/A   Clear
10:54 AM 45.0 °F 40.1 °F 30.9 °F 58% 30.06 in 10.0 mi WNW 9.2 mph - N/A   Clear
11:54 AM 48.0 °F - 30.0 °F 50% 30.06 in 10.0 mi Variable 5.8 mph - N/A   Clear
12:54 PM 50.0 °F - 30.0 °F 46% 30.04 in 10.0 mi WSW 9.2 mph - N/A   Clear
1:54 PM 51.1 °F - 30.0 °F 44% 30.03 in 10.0 mi West 9.2 mph - N/A   Clear
2:54 PM 53.1 °F - 28.0 °F 38% 30.02 in 10.0 mi Variable 4.6 mph - N/A   Clear
3:54 PM 54.0 °F - 27.0 °F 35% 30.02 in 10.0 mi West 11.5 mph - N/A   Clear
4:54 PM 52.0 °F - 28.0 °F 40% 30.03 in 10.0 mi West 6.9 mph - N/A   Clear
5:54 PM 50.0 °F - 28.9 °F 44% 30.02 in 10.0 mi WSW 3.5 mph - N/A   Clear
6:54 PM 45.0 °F 43.5 °F 30.0 °F 56% 30.04 in 10.0 mi SW 3.5 mph - N/A   Clear
7:54 PM 43.0 °F 41.3 °F 30.0 °F 60% 30.05 in 10.0 mi SW 3.5 mph - N/A   Clear
8:54 PM 42.1 °F 40.2 °F 28.9 °F 60% 30.03 in 10.0 mi SSW 3.5 mph - N/A   Clear
9:54 PM 39.0 °F - 28.9 °F 67% 30.03 in 10.0 mi Calm Calm - N/A   Clear
10:54 PM 37.9 °F - 30.0 °F 73% 30.02 in 10.0 mi Calm Calm - N/A   Clear
11:54 PM 39.0 °F 36.8 °F 28.9 °F 67% 30.01 in 10.0 mi SW 3.5 mph - N/A   Clear